TimeCST,TemperatureF,Dew PointF,Humidity,Sea Level PressureIn,VisibilityMPH,Wind Direction,Wind SpeedMPH,Gust SpeedMPH,PrecipitationIn,Events,Conditions,WindDirDegrees,DateUTC
12:53 AM,33.1,26.1,75,30.22,10.0,WNW,5.8,-,N/A,,Clear,300,2012-12-12 06:53:00
1:53 AM,33.1,26.1,75,30.22,10.0,WNW,4.6,-,N/A,,Clear,300,2012-12-12 07:53:00
2:53 AM,32.0,25.0,75,30.22,10.0,NW,4.6,-,N/A,,Clear,310,2012-12-12 08:53:00
3:53 AM,30.0,25.0,82,30.22,10.0,WNW,5.8,-,N/A,,Clear,300,2012-12-12 09:53:00
4:53 AM,30.9,25.0,79,30.22,10.0,WNW,5.8,-,N/A,,Clear,300,2012-12-12 10:53:00
5:53 AM,30.0,24.1,79,30.24,10.0,NW,4.6,-,N/A,,Clear,310,2012-12-12 11:53:00
6:53 AM,30.9,24.1,76,30.26,10.0,NW,4.6,-,N/A,,Clear,310,2012-12-12 12:53:00
7:53 AM,30.9,25.0,79,30.29,10.0,WNW,4.6,-,N/A,,Clear,300,2012-12-12 13:53:00
8:53 AM,39.9,28.0,63,30.29,10.0,Calm,Calm,-,N/A,,Clear,0,2012-12-12 14:53:00
9:53 AM,46.9,21.9,37,30.31,10.0,ESE,3.5,-,N/A,,Clear,120,2012-12-12 15:53:00
10:53 AM,51.1,19.9,29,30.31,10.0,Calm,Calm,-,N/A,,Clear,0,2012-12-12 16:53:00
11:53 AM,54.0,19.9,26,30.29,10.0,SE,3.5,-,N/A,,Clear,140,2012-12-12 17:53:00
12:53 PM,57.0,21.9,26,30.25,10.0,Variable,4.6,-,N/A,,Clear,0,2012-12-12 18:53:00
1:53 PM,57.9,21.9,25,30.22,10.0,SSE,5.8,-,N/A,,Clear,150,2012-12-12 19:53:00
2:53 PM,60.1,21.9,23,30.20,10.0,South,4.6,-,N/A,,Clear,180,2012-12-12 20:53:00
3:53 PM,60.1,21.9,23,30.19,10.0,SSE,6.9,-,N/A,,Clear,160,2012-12-12 21:53:00
4:53 PM,57.9,21.9,25,30.18,10.0,SE,8.1,-,N/A,,Clear,130,2012-12-12 22:53:00
5:53 PM,48.9,24.1,38,30.19,10.0,SE,6.9,-,N/A,,Clear,130,2012-12-12 23:53:00
6:53 PM,48.9,23.0,36,30.21,10.0,ESE,6.9,-,N/A,,Clear,120,2012-12-13 00:53:00
7:53 PM,50.0,23.0,35,30.22,10.0,SE,3.5,-,N/A,,Clear,130,2012-12-13 01:53:00
8:53 PM,45.0,27.0,49,30.23,10.0,Calm,Calm,-,N/A,,Clear,0,2012-12-13 02:53:00
9:53 PM,42.1,30.0,62,30.24,10.0,Calm,Calm,-,N/A,,Clear,0,2012-12-13 03:53:00
10:53 PM,44.1,28.0,53,30.25,10.0,SSE,6.9,-,N/A,,Clear,160,2012-12-13 04:53:00
11:53 PM,44.1,28.9,55,30.25,10.0,South,6.9,-,N/A,,Clear,180,2012-12-13 05:53:00